time, Switch, Flow(0), Analog(2)
yyyy/mm/dd HH:MM:SS.fff, True=FILTERED|False=TOTAL, L/min, V
2023/06/23 08:00:02.337, True, 4.311, 0.132830
2023/06/23 08:00:02.833, True, 4.381, 0.135119
2023/06/23 08:00:03.337, True, 3.979, 0.130465
2023/06/23 08:00:03.842, True, 3.979, 0.133898
2023/06/23 08:00:04.337, True, 2.359, 0.135729
2023/06/23 08:00:04.841, True, 1.990, 0.133974
2023/06/23 08:00:05.345, True, 1.658, 0.135042
2023/06/23 08:00:05.841, True, 1.685, 0.132296
2023/06/23 08:00:06.345, True, 1.326, 0.132753
2023/06/23 08:00:06.849, True, 1.658, 0.134279
2023/06/23 08:00:07.345, True, 1.685, 0.131838
2023/06/23 08:00:07.849, True, 1.326, 0.136492
2023/06/23 08:00:08.353, True, 1.658, 0.134508
2023/06/23 08:00:08.849, True, 1.685, 0.136339
2023/06/23 08:00:09.353, True, 1.658, 0.136339
2023/06/23 08:00:09.857, True, 1.658, 0.132906
2023/06/23 08:00:10.353, True, 1.685, 0.133974
2023/06/23 08:00:10.857, True, 1.658, 0.134661
2023/06/23 08:00:11.361, True, 1.658, 0.132143
2023/06/23 08:00:11.857, True, 1.685, 0.133974
2023/06/23 08:00:12.361, True, 1.657, 0.132601
2023/06/23 08:00:12.865, True, 1.327, 0.134585
2023/06/23 08:00:13.361, True, 1.685, 0.133822
2023/06/23 08:00:13.865, True, 1.658, 0.132906
2023/06/23 08:00:14.361, True, 1.685, 0.133593
2023/06/23 08:00:14.865, True, 1.658, 0.133669
2023/06/23 08:00:15.369, True, 1.326, 0.133288
2023/06/23 08:00:15.865, True, 1.684, 0.132296
2023/06/23 08:00:16.369, True, 1.660, 0.133669
2023/06/23 08:00:16.873, True, 1.656, 0.134813
2023/06/23 08:00:17.369, True, 1.685, 0.133364
2023/06/23 08:00:17.873, True, 1.658, 0.132906
2023/06/23 08:00:18.377, True, 1.659, 0.133516
2023/06/23 08:00:18.881, True, 1.657, 0.133898
2023/06/23 08:00:19.378, True, 1.348, 0.134203
2023/06/23 08:00:19.881, True, 1.658, 0.134279
2023/06/23 08:00:20.385, True, 1.660, 0.134966
2023/06/23 08:00:20.881, True, 1.683, 0.135195
2023/06/23 08:00:21.385, True, 1.658, 0.132219
2023/06/23 08:00:21.881, True, 1.684, 0.131685
2023/06/23 08:00:22.385, True, 1.658, 0.133364
2023/06/23 08:00:22.889, True, 1.658, 0.135576
2023/06/23 08:00:23.385, True, 1.348, 0.132753
2023/06/23 08:00:23.889, True, 1.658, 0.132296
2023/06/23 08:00:24.393, True, 1.658, 0.132982
2023/06/23 08:00:24.889, True, 1.685, 0.136187
2023/06/23 08:00:25.393, True, 1.658, 0.134356
2023/06/23 08:00:25.897, True, 1.326, 0.132753
2023/06/23 08:00:26.393, True, 1.685, 0.132372
2023/06/23 08:00:26.897, True, 1.658, 0.134051
2023/06/23 08:00:27.401, True, 1.658, 0.131533
2023/06/23 08:00:27.897, True, 1.685, 0.134585
2023/06/23 08:00:28.401, True, 1.658, 0.134279
2023/06/23 08:00:28.905, True, 1.659, 0.132906
2023/06/23 08:00:29.401, True, 1.684, 0.133974
2023/06/23 08:00:29.904, True, 1.660, 0.134051
2023/06/23 08:00:30.409, True, 1.656, 0.133364
2023/06/23 08:00:30.905, True, 1.685, 0.132601
2023/06/23 08:00:31.409, True, 1.658, 0.133593
2023/06/23 08:00:31.913, True, 1.658, 0.132601
2023/06/23 08:00:32.409, True, 1.348, 0.133593
2023/06/23 08:00:32.913, True, 1.658, 0.133669
2023/06/23 08:00:33.417, True, 1.658, 0.133211
2023/06/23 08:00:33.921, True, 1.658, 0.131685
2023/06/23 08:00:34.417, True, 1.686, 0.131991
2023/06/23 08:00:34.921, True, 1.656, 0.133288
2023/06/23 08:00:35.425, True, 1.659, 0.133516
2023/06/23 08:00:35.921, True, 1.684, 0.133288
2023/06/23 08:00:36.425, True, 1.327, 0.132067
2023/06/23 08:00:36.929, True, 1.658, 0.134127
2023/06/23 08:00:37.425, True, 1.684, 0.132601
2023/06/23 08:00:37.929, True, 1.658, 0.133593
2023/06/23 08:00:38.425, True, 1.348, 0.133669
2023/06/23 08:00:38.929, True, 1.660, 0.135348
2023/06/23 08:00:39.433, True, 1.656, 0.133059
2023/06/23 08:00:39.929, True, 1.687, 0.134127
2023/06/23 08:00:40.433, True, 1.656, 0.134813
2023/06/23 08:00:40.937, True, 1.658, 0.133211
2023/06/23 08:00:41.433, True, 1.686, 0.134737
2023/06/23 08:00:41.937, True, 1.656, 0.133288
2023/06/23 08:00:42.441, True, 1.658, 0.134127
2023/06/23 08:00:42.937, True, 1.685, 0.135805
2023/06/23 08:00:43.441, True, 1.328, 0.135119
2023/06/23 08:00:43.945, True, 1.656, 0.134737
2023/06/23 08:00:44.441, True, 1.686, 0.133745
2023/06/23 08:00:44.945, True, 1.658, 0.136950
2023/06/23 08:00:45.449, True, 1.658, 0.136187
2023/06/23 08:00:45.945, True, 1.685, 0.136797
2023/06/23 08:00:46.449, True, 1.327, 0.137865
2023/06/23 08:00:46.953, True, 1.658, 0.138247
2023/06/23 08:00:47.449, True, 1.685, 0.137179
2023/06/23 08:00:47.953, True, 1.658, 0.138323
2023/06/23 08:00:48.457, True, 1.658, 0.138323
2023/06/23 08:00:48.953, True, 1.686, 0.137255
2023/06/23 08:00:49.457, True, 1.656, 0.138781
2023/06/23 08:00:49.961, True, 1.659, 0.138094
2023/06/23 08:00:50.457, True, 1.685, 0.140917
2023/06/23 08:00:50.960, True, 1.660, 0.139925
2023/06/23 08:00:51.465, True, 1.655, 0.140841
2023/06/23 08:00:51.961, True, 1.348, 0.143053
2023/06/23 08:00:52.465, True, 1.658, 0.143969
2023/06/23 08:00:52.969, True, 1.658, 0.141909
2023/06/23 08:00:53.464, True, 1.686, 0.144045
2023/06/23 08:00:53.969, True, 1.656, 0.140841
2023/06/23 08:00:54.473, True, 1.658, 0.144121
2023/06/23 08:00:54.969, True, 1.684, 0.141604
2023/06/23 08:00:55.473, True, 1.658, 0.146868
2023/06/23 08:00:55.977, True, 1.658, 0.143816
2023/06/23 08:00:56.473, True, 1.684, 0.144808
2023/06/23 08:00:56.977, True, 1.658, 0.143053
2023/06/23 08:00:57.481, True, 1.658, 0.143435
2023/06/23 08:00:57.976, True, 1.348, 0.141451
2023/06/23 08:00:58.481, True, 1.659, 0.142824
2023/06/23 08:00:58.985, True, 1.657, 0.144350
2023/06/23 08:00:59.481, True, 1.684, 0.143893
2023/06/23 08:00:59.985, True, 1.326, 0.143511
2023/06/23 08:01:00.489, True, 1.658, 0.145037
2023/06/23 08:01:00.985, True, 1.685, 0.143969
2023/06/23 08:01:01.489, True, 1.658, 0.144274
2023/06/23 08:01:01.985, True, 1.685, 0.142672
2023/06/23 08:01:02.489, True, 1.658, 0.144350
2023/06/23 08:01:02.993, True, 1.658, 0.144579
2023/06/23 08:01:03.497, True, 1.658, 0.143969
2023/06/23 08:01:03.993, True, 1.684, 0.145113
2023/06/23 08:01:04.497, True, 1.327, 0.144503
2023/06/23 08:01:05.000, True, 1.658, 0.145113
2023/06/23 08:01:05.497, True, 1.684, 0.145953
2023/06/23 08:01:06.001, True, 1.658, 0.144579
2023/06/23 08:01:06.505, True, 1.658, 0.145037
2023/06/23 08:01:07.001, True, 1.685, 0.145647
2023/06/23 08:01:07.505, True, 1.657, 0.144732
2023/06/23 08:01:08.009, True, 1.658, 0.144045
2023/06/23 08:01:08.505, True, 1.348, 0.144732
2023/06/23 08:01:09.009, True, 1.658, 0.145342
2023/06/23 08:01:09.513, True, 1.326, 0.143969
2023/06/23 08:01:10.009, True, 1.348, 0.146181
2023/06/23 08:01:10.513, True, 1.658, 0.143816
2023/06/23 08:01:11.017, True, 1.658, 0.147707
2023/06/23 08:01:11.513, True, 1.348, 0.144656
2023/06/23 08:01:12.017, True, 1.658, 0.144884
2023/06/23 08:01:12.521, True, 1.658, 0.143969
2023/06/23 08:01:13.025, True, 1.661, 0.142977
2023/06/23 08:01:13.520, True, 1.683, 0.145876
2023/06/23 08:01:14.025, True, 1.657, 0.144732
2023/06/23 08:01:14.529, True, 1.329, 0.146029
2023/06/23 08:01:15.025, True, 1.684, 0.144961
2023/06/23 08:01:15.528, True, 1.655, 0.145724
2023/06/23 08:01:16.033, True, 1.660, 0.145266
2023/06/23 08:01:16.529, True, 1.686, 0.145266
2023/06/23 08:01:17.033, True, 1.656, 0.146410
2023/06/23 08:01:17.537, True, 1.658, 0.146334
2023/06/23 08:01:18.033, True, 1.687, 0.145190
2023/06/23 08:01:18.537, True, 1.655, 0.147021
2023/06/23 08:01:19.033, True, 1.685, 0.145571
2023/06/23 08:01:19.537, True, 1.659, 0.146563
2023/06/23 08:01:20.041, True, 1.658, 0.146563
2023/06/23 08:01:20.537, True, 1.686, 0.143511
2023/06/23 08:01:21.041, True, 1.657, 0.146105
2023/06/23 08:01:21.544, True, 1.659, 0.144579
2023/06/23 08:01:22.041, True, 1.685, 0.146334
2023/06/23 08:01:22.545, True, 1.324, 0.146792
2023/06/23 08:01:23.049, True, 1.658, 0.144350
2023/06/23 08:01:23.553, True, 1.658, 0.147250
2023/06/23 08:01:24.049, True, 1.687, 0.146029
2023/06/23 08:01:24.553, True, 1.658, 0.146029
2023/06/23 08:01:25.057, True, 1.325, 0.145876
2023/06/23 08:01:25.553, True, 1.685, 0.143816
2023/06/23 08:01:26.057, True, 1.661, 0.145495
2023/06/23 08:01:26.561, True, 1.655, 0.147631
2023/06/23 08:01:27.057, True, 1.685, 0.143893
2023/06/23 08:01:27.561, True, 1.658, 0.146029
2023/06/23 08:01:28.065, True, 1.658, 0.146792
2023/06/23 08:01:28.561, True, 1.685, 0.145724
2023/06/23 08:01:29.065, True, 1.658, 0.147097
2023/06/23 08:01:29.569, True, 1.327, 0.146029
2023/06/23 08:01:30.065, True, 1.687, 0.144961
2023/06/23 08:01:30.569, True, 1.658, 0.144732
2023/06/23 08:01:31.073, True, 1.658, 0.146868
2023/06/23 08:01:31.569, True, 1.682, 0.147097
2023/06/23 08:01:32.073, True, 1.661, 0.144732
2023/06/23 08:01:32.577, True, 1.657, 0.144961
2023/06/23 08:01:33.081, True, 1.325, 0.145876
2023/06/23 08:01:33.577, True, 1.685, 0.148089
2023/06/23 08:01:34.081, True, 1.658, 0.147097
2023/06/23 08:01:34.577, True, 1.685, 0.145647
2023/06/23 08:01:35.081, True, 1.658, 0.146105
2023/06/23 08:01:35.585, True, 1.658, 0.147021
2023/06/23 08:01:36.089, True, 1.326, 0.145495
2023/06/23 08:01:36.585, True, 1.685, 0.147326
2023/06/23 08:01:37.089, True, 1.658, 0.146181
2023/06/23 08:01:37.584, True, 1.685, 0.144274
2023/06/23 08:01:38.089, True, 1.327, 0.144121
2023/06/23 08:01:38.593, True, 1.658, 0.145342
2023/06/23 08:01:39.089, True, 1.688, 0.143740
2023/06/23 08:01:39.593, True, 1.655, 0.144121
2023/06/23 08:01:40.097, True, 1.658, 0.141833
2023/06/23 08:01:40.593, True, 1.348, 0.145037
2023/06/23 08:01:41.097, True, 1.660, 0.146029
2023/06/23 08:01:41.601, True, 1.656, 0.147631
2023/06/23 08:01:42.097, True, 1.685, 0.144656
2023/06/23 08:01:42.601, True, 1.326, 0.145724
2023/06/23 08:01:43.105, True, 1.658, 0.144503
2023/06/23 08:01:43.601, True, 1.685, 0.147250
2023/06/23 08:01:44.105, True, 1.326, 0.144961
2023/06/23 08:01:44.609, True, 1.990, 0.144045
2023/06/23 08:01:45.105, True, 1.348, 0.144961
2023/06/23 08:01:45.609, True, 1.658, 0.144579
2023/06/23 08:01:46.105, True, 1.684, 0.146868
2023/06/23 08:01:46.609, True, 1.658, 0.144045
2023/06/23 08:01:47.113, True, 1.658, 0.144579
2023/06/23 08:01:47.609, True, 1.685, 0.146029
2023/06/23 08:01:48.113, True, 1.658, 0.144274
2023/06/23 08:01:48.617, True, 1.658, 0.146258
2023/06/23 08:01:49.121, True, 1.659, 0.145418
2023/06/23 08:01:49.617, True, 1.684, 0.145647
2023/06/23 08:01:50.121, True, 1.658, 0.146410
2023/06/23 08:01:50.625, True, 1.658, 0.144503
2023/06/23 08:01:51.121, True, 1.685, 0.141146
2023/06/23 08:01:51.625, True, 1.658, 0.145342
2023/06/23 08:01:52.129, True, 1.326, 0.144427
2023/06/23 08:01:52.625, True, 1.685, 0.144427
2023/06/23 08:01:53.129, True, 1.658, 0.144961
2023/06/23 08:01:53.633, True, 1.990, 0.142977
2023/06/23 08:01:54.129, True, 1.350, 0.142290
2023/06/23 08:01:54.633, True, 1.655, 0.145495
2023/06/23 08:01:55.137, True, 1.658, 0.144961
2023/06/23 08:01:55.633, True, 1.348, 0.145190
2023/06/23 08:01:56.137, True, 1.659, 0.143359
2023/06/23 08:01:56.641, True, 1.656, 0.143359
2023/06/23 08:01:57.137, True, 1.685, 0.144198
2023/06/23 08:01:57.641, True, 1.661, 0.143816
2023/06/23 08:01:58.137, True, 1.682, 0.144656
2023/06/23 08:01:58.641, True, 1.658, 0.142901
2023/06/23 08:01:59.145, True, 1.658, 0.144808
2023/06/23 08:01:59.649, True, 1.326, 0.145418
2023/06/23 08:02:00.145, True, 1.685, 0.144579
2023/06/23 08:02:00.649, True, 1.658, 0.145418
2023/06/23 08:02:01.153, True, 1.658, 0.145495
2023/06/23 08:02:01.649, True, 1.685, 0.143816
2023/06/23 08:02:02.153, True, 1.658, 0.142824
2023/06/23 08:02:02.657, True, 1.658, 0.145190
2023/06/23 08:02:03.153, True, 1.684, 0.142138
2023/06/23 08:02:03.657, True, 1.326, 0.144198
2023/06/23 08:02:04.161, True, 1.658, 0.145876
2023/06/23 08:02:04.657, True, 1.685, 0.144503
2023/06/23 08:02:05.161, True, 1.660, 0.143435
2023/06/23 08:02:05.665, True, 1.656, 0.145571
2023/06/23 08:02:06.161, True, 1.684, 0.144656
2023/06/23 08:02:06.665, True, 1.658, 0.141756
2023/06/23 08:02:07.169, True, 1.990, 0.144198
2023/06/23 08:02:07.665, True, 1.684, 0.142061
2023/06/23 08:02:08.169, True, 1.326, 0.144350
2023/06/23 08:02:08.673, True, 1.326, 0.142748
2023/06/23 08:02:09.169, True, 1.685, 0.145800
2023/06/23 08:02:09.673, True, 1.326, 0.144274
2023/06/23 08:02:10.177, True, 1.658, 0.143740
2023/06/23 08:02:10.673, True, 1.685, 0.143130
2023/06/23 08:02:11.177, True, 1.658, 0.141909
2023/06/23 08:02:11.681, True, 1.658, 0.144350
2023/06/23 08:02:12.177, True, 1.685, 0.143969
2023/06/23 08:02:12.681, True, 1.658, 0.143740
2023/06/23 08:02:13.185, True, 1.658, 0.143740
2023/06/23 08:02:13.689, True, 1.660, 0.141527
2023/06/23 08:02:14.185, True, 1.684, 0.144884
2023/06/23 08:02:14.689, True, 1.658, 0.143435
2023/06/23 08:02:15.185, True, 1.684, 0.143664
2023/06/23 08:02:15.689, True, 1.658, 0.143206
2023/06/23 08:02:16.193, True, 1.658, 0.143893
2023/06/23 08:02:16.697, True, 1.326, 0.144732
2023/06/23 08:02:17.193, True, 1.685, 0.142748
2023/06/23 08:02:17.697, True, 1.658, 0.144198
2023/06/23 08:02:18.201, True, 1.661, 0.140993
2023/06/23 08:02:18.697, True, 1.684, 0.144121
2023/06/23 08:02:19.201, True, 1.656, 0.143130
2023/06/23 08:02:19.705, True, 1.658, 0.143740
2023/06/23 08:02:20.201, True, 1.684, 0.144503
2023/06/23 08:02:20.705, True, 1.658, 0.141527
2023/06/23 08:02:21.209, True, 1.658, 0.142138
2023/06/23 08:02:21.705, True, 1.685, 0.142061
2023/06/23 08:02:22.209, True, 1.658, 0.142214
2023/06/23 08:02:22.713, True, 1.660, 0.144884
2023/06/23 08:02:23.209, True, 1.683, 0.142519
2023/06/23 08:02:23.713, True, 1.658, 0.140230
2023/06/23 08:02:24.217, True, 1.658, 0.142824
2023/06/23 08:02:24.713, True, 1.685, 0.142443
2023/06/23 08:02:25.217, True, 1.658, 0.143664
2023/06/23 08:02:25.721, True, 1.659, 0.142672
2023/06/23 08:02:26.217, True, 1.348, 0.143359
2023/06/23 08:02:26.721, True, 1.657, 0.142596
2023/06/23 08:02:27.225, True, 1.660, 0.143969
2023/06/23 08:02:27.721, True, 1.347, 0.142672
2023/06/23 08:02:28.225, True, 1.657, 0.143893
2023/06/23 08:02:28.729, True, 1.659, 0.142061
2023/06/23 08:02:29.225, True, 1.685, 0.142138
2023/06/23 08:02:29.729, True, 1.657, 0.140612
2023/06/23 08:02:30.233, True, 1.659, 0.141833
2023/06/23 08:02:30.729, True, 1.685, 0.141909
2023/06/23 08:02:31.233, True, 1.656, 0.140459
2023/06/23 08:02:31.737, True, 1.660, 0.144274
2023/06/23 08:02:32.233, True, 1.683, 0.142519
2023/06/23 08:02:32.736, True, 1.326, 0.141756
2023/06/23 08:02:33.241, True, 1.658, 0.142290
2023/06/23 08:02:33.737, True, 1.687, 0.142519
2023/06/23 08:02:34.240, True, 1.656, 0.139925
2023/06/23 08:02:34.745, True, 1.658, 0.142443
2023/06/23 08:02:35.240, True, 1.688, 0.141909
2023/06/23 08:02:35.744, True, 1.655, 0.142596
2023/06/23 08:02:36.249, True, 1.660, 0.141909
2023/06/23 08:02:36.745, True, 1.686, 0.142901
2023/06/23 08:02:37.249, True, 1.655, 0.141451
2023/06/23 08:02:37.752, True, 1.327, 0.143206
2023/06/23 08:02:38.249, True, 1.348, 0.142367
2023/06/23 08:02:38.752, True, 1.658, 0.142519
2023/06/23 08:02:39.256, True, 1.329, 0.142138
2023/06/23 08:02:39.752, True, 1.682, 0.144121
2023/06/23 08:02:40.256, True, 1.661, 0.143587
2023/06/23 08:02:40.761, True, 1.655, 0.143435
2023/06/23 08:02:41.257, True, 1.348, 0.141451
2023/06/23 08:02:41.760, True, 1.658, 0.142596
2023/06/23 08:02:42.265, True, 1.658, 0.141451
2023/06/23 08:02:42.761, True, 1.685, 0.141299
2023/06/23 08:02:43.264, True, 1.326, 0.141451
2023/06/23 08:02:43.769, True, 1.661, 0.141375
2023/06/23 08:02:44.265, True, 1.345, 0.143053
2023/06/23 08:02:44.769, True, 1.658, 0.141375
2023/06/23 08:02:45.273, True, 1.659, 0.142214
2023/06/23 08:02:45.769, True, 1.685, 0.143435
2023/06/23 08:02:46.273, True, 1.657, 0.141756
2023/06/23 08:02:46.777, True, 1.327, 0.139696
2023/06/23 08:02:47.273, True, 1.685, 0.143664
2023/06/23 08:02:47.777, True, 1.326, 0.141451
2023/06/23 08:02:48.272, True, 1.684, 0.140993
2023/06/23 08:02:48.776, True, 1.327, 0.142061
2023/06/23 08:02:49.281, True, 1.658, 0.142443
2023/06/23 08:02:49.777, True, 1.685, 0.140307
2023/06/23 08:02:50.281, True, 1.658, 0.140078
2023/06/23 08:02:50.785, True, 1.326, 0.141375
2023/06/23 08:02:51.281, True, 1.685, 0.142138
2023/06/23 08:02:51.785, True, 1.656, 0.141375
2023/06/23 08:02:52.288, True, 1.660, 0.142748
2023/06/23 08:02:52.793, True, 1.658, 0.143359
2023/06/23 08:02:53.297, True, 1.656, 0.141375
2023/06/23 08:02:53.793, True, 1.685, 0.141985
2023/06/23 08:02:54.296, True, 1.658, 0.141299
2023/06/23 08:02:54.793, True, 1.687, 0.141375
2023/06/23 08:02:55.297, True, 1.656, 0.142214
2023/06/23 08:02:55.800, True, 1.657, 0.141222
2023/06/23 08:02:56.305, True, 1.658, 0.141146
2023/06/23 08:02:56.801, True, 1.687, 0.141451
2023/06/23 08:02:57.305, True, 1.656, 0.144198
2023/06/23 08:02:57.809, True, 1.658, 0.141222
2023/06/23 08:02:58.305, True, 1.685, 0.140993
2023/06/23 08:02:58.809, True, 1.327, 0.141527
2023/06/23 08:02:59.313, True, 1.657, 0.141909
2023/06/23 08:02:59.809, True, 1.685, 0.142748
2023/06/23 08:03:00.313, True, 1.658, 0.141756
2023/06/23 08:03:00.809, True, 1.685, 0.140688
2023/06/23 08:03:01.312, True, 1.658, 0.141527
2023/06/23 08:03:01.817, True, 1.658, 0.138933
2023/06/23 08:03:02.313, True, 1.348, 0.140459
2023/06/23 08:03:02.816, True, 1.990, 0.141146
2023/06/23 08:03:03.321, True, 1.326, 0.142672
2023/06/23 08:03:03.817, True, 1.687, 0.140002
2023/06/23 08:03:04.321, True, 1.657, 0.140993
2023/06/23 08:03:04.825, True, 1.326, 0.141756
2023/06/23 08:03:05.321, True, 1.686, 0.138018
2023/06/23 08:03:05.825, True, 1.657, 0.140688
2023/06/23 08:03:06.321, True, 1.685, 0.141833
2023/06/23 08:03:06.825, True, 1.658, 0.141985
2023/06/23 08:03:07.329, True, 1.658, 0.140688
2023/06/23 08:03:07.825, True, 1.348, 0.141680
2023/06/23 08:03:08.329, True, 1.659, 0.142519
2023/06/23 08:03:08.833, True, 1.657, 0.143435
2023/06/23 08:03:09.328, True, 1.685, 0.141909
2023/06/23 08:03:09.833, True, 1.327, 0.141680
2023/06/23 08:03:10.337, True, 1.658, 0.139162
2023/06/23 08:03:10.833, True, 1.685, 0.140993
2023/06/23 08:03:11.337, True, 1.658, 0.141833
2023/06/23 08:03:11.841, True, 1.658, 0.139467
2023/06/23 08:03:12.337, True, 1.348, 0.139696
2023/06/23 08:03:12.841, True, 1.658, 0.139544
2023/06/23 08:03:13.345, True, 1.658, 0.139849
2023/06/23 08:03:13.841, True, 1.685, 0.140993
2023/06/23 08:03:14.345, True, 1.658, 0.141985
2023/06/23 08:03:14.849, True, 1.658, 0.138094
2023/06/23 08:03:15.345, True, 1.685, 0.140078
2023/06/23 08:03:15.849, True, 1.326, 0.141680
2023/06/23 08:03:16.353, True, 1.658, 0.139239
2023/06/23 08:03:16.849, True, 1.685, 0.142061
2023/06/23 08:03:17.353, True, 1.658, 0.142138
2023/06/23 08:03:17.857, True, 1.658, 0.140154
2023/06/23 08:03:18.353, True, 1.685, 0.140459
2023/06/23 08:03:18.857, True, 1.658, 0.139773
2023/06/23 08:03:19.361, True, 1.658, 0.139696
2023/06/23 08:03:19.857, True, 1.347, 0.141451
2023/06/23 08:03:20.361, True, 1.658, 0.140841
2023/06/23 08:03:20.865, True, 1.658, 0.141756
2023/06/23 08:03:21.369, True, 1.658, 0.140993
2023/06/23 08:03:21.865, True, 1.684, 0.140612
2023/06/23 08:03:22.369, True, 1.658, 0.139315
2023/06/23 08:03:22.865, True, 1.685, 0.138552
2023/06/23 08:03:23.369, True, 1.658, 0.141375
2023/06/23 08:03:23.873, True, 1.658, 0.140078
2023/06/23 08:03:24.369, True, 1.685, 0.140459
2023/06/23 08:03:24.873, True, 1.326, 0.139086
2023/06/23 08:03:25.377, True, 1.658, 0.140078
2023/06/23 08:03:25.873, True, 1.685, 0.141985
2023/06/23 08:03:26.376, True, 1.661, 0.140536
2023/06/23 08:03:26.873, True, 1.682, 0.141299
2023/06/23 08:03:27.377, True, 1.658, 0.139773
2023/06/23 08:03:27.881, True, 1.658, 0.142367
2023/06/23 08:03:28.377, True, 1.685, 0.139696
2023/06/23 08:03:28.881, True, 1.658, 0.141299
2023/06/23 08:03:29.385, True, 1.658, 0.139849
2023/06/23 08:03:29.881, True, 1.685, 0.139086
2023/06/23 08:03:30.385, True, 1.658, 0.141375
2023/06/23 08:03:30.889, True, 1.327, 0.138705
2023/06/23 08:03:31.385, True, 1.684, 0.142138
2023/06/23 08:03:31.889, True, 1.658, 0.140688
2023/06/23 08:03:32.393, True, 1.658, 0.138018
2023/06/23 08:03:32.889, True, 1.685, 0.141070
2023/06/23 08:03:33.393, True, 1.657, 0.140154
2023/06/23 08:03:33.897, True, 1.326, 0.139544
2023/06/23 08:03:34.393, True, 1.685, 0.139620
2023/06/23 08:03:34.897, True, 1.658, 0.140383
2023/06/23 08:03:35.401, True, 1.658, 0.139467
2023/06/23 08:03:35.897, True, 1.685, 0.139925
2023/06/23 08:03:36.401, True, 1.658, 0.138552
2023/06/23 08:03:36.905, True, 1.658, 0.139773
2023/06/23 08:03:37.401, True, 1.348, 0.141604
2023/06/23 08:03:37.905, True, 1.658, 0.139239
2023/06/23 08:03:38.409, True, 1.326, 0.138476
2023/06/23 08:03:38.905, True, 1.685, 0.138857
2023/06/23 08:03:39.409, True, 1.658, 0.137026
2023/06/23 08:03:39.913, True, 1.326, 0.140154
2023/06/23 08:03:40.409, True, 1.685, 0.139620
2023/06/23 08:03:40.913, True, 1.658, 0.141756
2023/06/23 08:03:41.417, True, 1.326, 0.140307
2023/06/23 08:03:41.913, True, 1.685, 0.138857
2023/06/23 08:03:42.417, True, 1.658, 0.139849
2023/06/23 08:03:42.921, True, 1.326, 0.138933
2023/06/23 08:03:43.417, True, 1.685, 0.138781
2023/06/23 08:03:43.921, True, 1.327, 0.138705
2023/06/23 08:03:44.425, True, 1.658, 0.139010
2023/06/23 08:03:44.920, True, 1.685, 0.139315
2023/06/23 08:03:45.425, True, 1.658, 0.139467
2023/06/23 08:03:45.929, True, 1.658, 0.139925
2023/06/23 08:03:46.425, True, 1.685, 0.140993
2023/06/23 08:03:46.929, True, 1.658, 0.138781
2023/06/23 08:03:47.433, True, 1.658, 0.140078
2023/06/23 08:03:47.929, True, 1.348, 0.139239
2023/06/23 08:03:48.433, True, 1.658, 0.137789
2023/06/23 08:03:48.937, True, 1.658, 0.138781
2023/06/23 08:03:49.433, True, 1.685, 0.138094
2023/06/23 08:03:49.937, True, 1.658, 0.139620
2023/06/23 08:03:50.441, True, 1.658, 0.139467
2023/06/23 08:03:50.937, True, 1.684, 0.139010
2023/06/23 08:03:51.441, True, 1.658, 0.139467
2023/06/23 08:03:51.937, True, 1.348, 0.137484
2023/06/23 08:03:52.441, True, 1.658, 0.140536
2023/06/23 08:03:52.945, True, 1.658, 0.139544
2023/06/23 08:03:53.440, True, 1.348, 0.138476
2023/06/23 08:03:53.945, True, 1.658, 0.138781
2023/06/23 08:03:54.449, True, 1.658, 0.138781
2023/06/23 08:03:54.945, True, 1.348, 0.138476
2023/06/23 08:03:55.449, True, 1.658, 0.139467
2023/06/23 08:03:55.953, True, 1.327, 0.140536
2023/06/23 08:03:56.449, True, 1.684, 0.138857
2023/06/23 08:03:56.953, True, 1.658, 0.138933
2023/06/23 08:03:57.449, True, 1.685, 0.137102
2023/06/23 08:03:57.953, True, 1.658, 0.139696
2023/06/23 08:03:58.457, True, 1.326, 0.139162
2023/06/23 08:03:58.961, True, 1.658, 0.137713
2023/06/23 08:03:59.457, True, 1.685, 0.138399
2023/06/23 08:03:59.961, True, 1.658, 0.140230
2023/06/23 08:04:00.465, True, 1.658, 0.138933
2023/06/23 08:04:00.961, True, 1.348, 0.137560
2023/06/23 08:04:01.465, True, 1.658, 0.138323
2023/06/23 08:04:01.961, True, 1.684, 0.138705
2023/06/23 08:04:02.464, True, 1.660, 0.138323
2023/06/23 08:04:02.969, True, 1.656, 0.137636
2023/06/23 08:04:03.473, True, 1.327, 0.139773
2023/06/23 08:04:03.969, True, 1.685, 0.138476
2023/06/23 08:04:04.473, True, 1.658, 0.139162
2023/06/23 08:04:04.977, True, 1.658, 0.140764
2023/06/23 08:04:05.473, True, 1.685, 0.141146
2023/06/23 08:04:05.977, True, 1.326, 0.137789
2023/06/23 08:04:06.473, True, 1.685, 0.140841
2023/06/23 08:04:06.977, True, 1.658, 0.139086
2023/06/23 08:04:07.481, True, 1.326, 0.139391
2023/06/23 08:04:07.977, True, 1.685, 0.140307
2023/06/23 08:04:08.481, True, 1.658, 0.137713
2023/06/23 08:04:08.985, True, 1.658, 0.136797
2023/06/23 08:04:09.481, True, 1.348, 0.141070
2023/06/23 08:04:09.985, True, 1.658, 0.140536
2023/06/23 08:04:10.489, True, 1.658, 0.137026
2023/06/23 08:04:10.985, True, 1.348, 0.138170
2023/06/23 08:04:11.489, True, 1.658, 0.138933